ASA599 CYYZ-CYHZ

Flight info

Callsign ASA599
Flight time N/A
Altitude 33000
Route DEDKI5 OLABA Q951 TALNO Q929 TOXAL DCT EBONY FUNDY5
Aircraft B739/M-SDE2E3FGHIRWXY/LB1

Departure

Time 2026-05-04 20:57
Airport Toronto Pearson International Airport (CYYZ)

Arrival

Time N/A
Airport Halifax / Stanfield International Airport (CYHZ)
Time Latitude Longitude Altitude Speed Heading
2026-05-04 20:57 43.56853 -79.26952 13085 ft 389 kts 73°
2026-05-04 20:57 43.57498 -79.24096 13612 ft 392 kts 73°
2026-05-04 20:58 43.58297 -79.20536 14183 ft 396 kts 73°
2026-05-04 20:58 43.59111 -79.16892 14759 ft 400 kts 72°
2026-05-04 20:58 43.59930 -79.13213 15309 ft 404 kts 72°
2026-05-04 20:58 43.60757 -79.09487 15896 ft 407 kts 72°
2026-05-04 20:59 43.61587 -79.05736 16461 ft 411 kts 72°
2026-05-04 20:59 43.62426 -79.01940 17019 ft 415 kts 72°
2026-05-04 20:59 43.63274 -78.98100 17582 ft 419 kts 71°
2026-05-04 20:59 43.64126 -78.94232 18116 ft 423 kts 71°
2026-05-04 21:00 43.64985 -78.90325 18599 ft 427 kts 71°
2026-05-04 21:00 43.65853 -78.86370 19093 ft 430 kts 71°
2026-05-04 21:00 43.66713 -78.82446 19586 ft 433 kts 71°
2026-05-04 21:00 43.67587 -78.78447 20086 ft 437 kts 71°
2026-05-04 21:01 43.68468 -78.74414 20568 ft 440 kts 71°
2026-05-04 21:01 43.69417 -78.70375 21043 ft 442 kts 66°
2026-05-04 21:01 43.70614 -78.66446 21539 ft 444 kts 63°
2026-05-04 21:01 43.71901 -78.62553 22045 ft 446 kts 61°
2026-05-04 21:02 43.73222 -78.58654 22524 ft 449 kts 61°
2026-05-04 21:02 43.74549 -78.54728 22987 ft 452 kts 61°
2026-05-04 21:02 43.75873 -78.50770 23423 ft 456 kts 61°
2026-05-04 21:02 43.77199 -78.46760 23824 ft 458 kts 62°
2026-05-04 21:03 43.78498 -78.42787 24239 ft 460 kts 62°
2026-05-04 21:03 43.79814 -78.38736 24652 ft 462 kts 62°
2026-05-04 21:03 43.81128 -78.34672 25044 ft 464 kts 62°
2026-05-04 21:03 43.82451 -78.30571 25434 ft 467 kts 62°
2026-05-04 21:04 43.83778 -78.26450 25768 ft 471 kts 62°
2026-05-04 21:04 43.85113 -78.22297 26132 ft 473 kts 62°
2026-05-04 21:04 43.86454 -78.18121 26519 ft 475 kts 62°
2026-05-04 21:04 43.87798 -78.13928 26895 ft 477 kts 62°
2026-05-04 21:05 43.89147 -78.09717 27275 ft 479 kts 62°
2026-05-04 21:05 43.90501 -78.05480 27629 ft 481 kts 62°
2026-05-04 21:05 43.91861 -78.01221 27977 ft 484 kts 62°
2026-05-04 21:05 43.93209 -77.96991 28326 ft 486 kts 62°
2026-05-04 21:06 43.94576 -77.92695 28701 ft 487 kts 62°
2026-05-04 21:06 43.95944 -77.88389 29115 ft 487 kts 62°
2026-05-04 21:06 43.97310 -77.84080 29525 ft 488 kts 62°
2026-05-04 21:06 43.98673 -77.79773 29914 ft 488 kts 62°
2026-05-04 21:07 44.00035 -77.75461 30316 ft 486 kts 62°
2026-05-04 21:07 44.01389 -77.71168 30733 ft 484 kts 61°
2026-05-04 21:07 44.02735 -77.66892 31115 ft 483 kts 61°
2026-05-04 21:07 44.04080 -77.62617 31464 ft 482 kts 61°
2026-05-04 21:08 44.05419 -77.58353 31822 ft 481 kts 61°
2026-05-04 21:08 44.06754 -77.54092 32275 ft 478 kts 61°
2026-05-04 21:08 44.08078 -77.49860 32672 ft 476 kts 60°
2026-05-04 21:08 44.09405 -77.45620 32694 ft 480 kts 61°
2026-05-04 21:09 44.12061 -77.37106 32709 ft 478 kts 61°
2026-05-04 21:09 44.14689 -77.28643 32714 ft 475 kts 61°
2026-05-04 21:10 44.17302 -77.20205 32735 ft 473 kts 60°
2026-05-04 21:10 44.19879 -77.11858 32725 ft 471 kts 61°
2026-05-04 21:11 44.22462 -77.03467 32739 ft 471 kts 61°
2026-05-04 21:11 44.25041 -76.95061 32760 ft 471 kts 61°
2026-05-04 21:12 44.27623 -76.86620 32738 ft 473 kts 61°
2026-05-04 21:12 44.30204 -76.78149 32753 ft 475 kts 61°
2026-05-04 21:13 44.32786 -76.69646 32748 ft 476 kts 61°
2026-05-04 21:13 44.35372 -76.61100 32752 ft 477 kts 61°
2026-05-04 21:14 44.37935 -76.52604 32748 ft 477 kts 61°
2026-05-04 21:14 44.40507 -76.44048 32758 ft 478 kts 61°
2026-05-04 21:15 44.43073 -76.35482 32757 ft 477 kts 61°
2026-05-04 21:15 44.45650 -76.26863 32757 ft 484 kts 61°
2026-05-04 21:16 44.48276 -76.18079 32739 ft 492 kts 60°
2026-05-04 21:16 44.51041 -76.09274 32724 ft 494 kts 60°
2026-05-04 21:17 44.53837 -76.00471 32723 ft 495 kts 60°
2026-05-04 21:17 44.56607 -75.91660 32737 ft 495 kts 60°
2026-05-04 21:18 44.59368 -75.82806 32707 ft 494 kts 60°
2026-05-04 21:18 44.62113 -75.73973 32702 ft 493 kts 60°
2026-05-04 21:19 44.64832 -75.65201 32697 ft 492 kts 60°
2026-05-04 21:19 44.67338 -75.56220 32706 ft 494 kts 63°
2026-05-04 21:20 44.69762 -75.47159 32706 ft 494 kts 62°
2026-05-04 21:20 44.72224 -75.38147 32693 ft 494 kts 62°
2026-05-04 21:21 44.74783 -75.29207 32697 ft 492 kts 60°
2026-05-04 21:21 44.77413 -75.20383 32704 ft 491 kts 60°
2026-05-04 21:22 44.80035 -75.11510 32729 ft 491 kts 60°
2026-05-04 21:22 44.82638 -75.02596 32719 ft 492 kts 61°
2026-05-04 21:23 44.85228 -74.93673 32708 ft 492 kts 60°
2026-05-04 21:23 44.87817 -74.84730 32700 ft 491 kts 61°
2026-05-04 21:24 44.90379 -74.75854 32704 ft 491 kts 61°
2026-05-04 21:24 44.92732 -74.66765 32709 ft 496 kts 66°
2026-05-04 21:25 44.94708 -74.57418 32711 ft 497 kts 67°
2026-05-04 21:25 44.96683 -74.48080 32709 ft 496 kts 66°
2026-05-04 21:26 44.98702 -74.38768 32704 ft 495 kts 66°
2026-05-04 21:26 45.00621 -74.29414 32699 ft 497 kts 68°
2026-05-04 21:27 45.02336 -74.19950 32704 ft 497 kts 69°
2026-05-04 21:27 45.04044 -74.10544 32700 ft 497 kts 69°
2026-05-04 21:28 45.05792 -74.01085 32714 ft 497 kts 69°
2026-05-04 21:28 45.07516 -73.91595 32710 ft 500 kts 71°
2026-05-04 21:29 45.08193 -73.81698 32726 ft 509 kts 82°
2026-05-04 21:29 45.08457 -73.71670 32720 ft 509 kts 82°
2026-05-04 21:30 45.08806 -73.61726 32731 ft 509 kts 81°
2026-05-04 21:30 45.09182 -73.51707 32731 ft 510 kts 81°
2026-05-04 21:31 45.09696 -73.36645 32727 ft 511 kts 82°
2026-05-04 21:32 45.10026 -73.26592 32750 ft 511 kts 82°
2026-05-04 21:32 45.10349 -73.16559 32735 ft 509 kts 82°
2026-05-04 21:33 45.10663 -73.06543 32758 ft 508 kts 82°
2026-05-04 21:33 45.10966 -72.96617 32751 ft 507 kts 82°
2026-05-04 21:34 45.11216 -72.88254 32747 ft 506 kts 82°
2026-05-04 21:34 45.11503 -72.78350 32760 ft 506 kts 82°
2026-05-04 21:35 45.11782 -72.68388 32756 ft 505 kts 82°
2026-05-04 21:35 45.12052 -72.58460 32758 ft 504 kts 82°
2026-05-04 21:36 45.12314 -72.48551 32763 ft 504 kts 82°
2026-05-04 21:36 45.12567 -72.38680 32776 ft 503 kts 82°
2026-05-04 21:37 45.12811 -72.28768 32759 ft 504 kts 82°
2026-05-04 21:37 45.13046 -72.18839 32778 ft 504 kts 82°
2026-05-04 21:38 45.13273 -72.08902 32767 ft 505 kts 82°
2026-05-04 21:38 45.13493 -71.98927 32805 ft 506 kts 82°
2026-05-04 21:39 45.13704 -71.88988 32802 ft 508 kts 82°
2026-05-04 21:39 45.13907 -71.78962 32785 ft 509 kts 83°
2026-05-04 21:40 45.14102 -71.68914 32774 ft 511 kts 83°